This is the latest recevied weather packets stored in our database for station/object 9M4RBN-3. If no packets are shown the sender has not sent any weather packets the latest 10 day(s).
| Time | Temp. | Humidity | Pressure | Rain* | Wind** | Luminosity | Snow |
|---|---|---|---|---|---|---|---|
| 1787658541 | 26.11° C | 46% | 1015.9 hPa | - | - | - | - |
| 1787657641 | 26.67° C | 47% | 1015.9 hPa | - | - | - | - |
| 1787656741 | 26.67° C | 46% | 1015.5 hPa | - | - | - | - |
| 1787655841 | 26.67° C | 47% | 1015.2 hPa | - | - | - | - |
| 1787654941 | 26.67° C | 46% | 1015.6 hPa | - | - | - | - |
| 1787654041 | 26.67° C | 47% | 1015.6 hPa | - | - | - | - |
| 1787653141 | 26.67° C | 49% | 1015.6 hPa | - | - | - | - |
| 1787652240 | 26.67° C | 52% | 1015.6 hPa | - | - | - | - |
| 1787651341 | 26.11° C | 54% | 1015.6 hPa | - | - | - | - |
| 1787650440 | 26.11° C | 48% | 1015.6 hPa | - | - | - | - |
| 1787649540 | 26.67° C | 40% | 1015.4 hPa | - | - | - | - |
| 1787648640 | 27.22° C | 43% | 1015.1 hPa | - | - | - | - |
| 1787647743 | 27.78° C | 53% | 1015.3 hPa | - | - | - | - |
| 1787646840 | 26.67° C | 49% | 1015.5 hPa | - | - | - | - |
| 1787645940 | 26.67° C | 47% | 1015.4 hPa | - | - | - | - |
| 1787645040 | 26.67° C | 48% | 1015.4 hPa | - | - | - | - |
| 1787644140 | 26.67° C | 49% | 1015.5 hPa | - | - | - | - |
| 1787643240 | 26.67° C | 49% | 1015.6 hPa | - | - | - | - |
| 1787642340 | 26.11° C | 49% | 1016 hPa | - | - | - | - |
| 1787641440 | 26.11° C | 50% | 1016.1 hPa | - | - | - | - |
| 1787640540 | 26.11° C | 50% | 1016.6 hPa | - | - | - | - |
| 1787639671 | 26.11° C | 50% | 1016.6 hPa | - | - | - | - |
| 1787639640 | 26.11° C | 50% | 1016.6 hPa | - | - | - | - |
| 1787638740 | 26.11° C | 51% | 1016.8 hPa | - | - | - | - |
| 1787637840 | 26.11° C | 50% | 1017 hPa | - | - | - | - |
* Rain since midnight (hover to see other rain measurements)
** Current wind speed in m/s (hover to see current wind gust speed)